This demonstration page uses our WeatherBlox Daily Observations layout. Learn more.

Hourly Observations for May 29, 2018

Temp ( °F °C ) Dew Point ( °F °C ) Humidity (%) Winds ( mph kmh ) Pressure ( in mb ) Visibility ( mi km ) Precip ( " mm )
12:54 am 00:54 Clear 70 21.1 62 16.7 76 76 SW 5 7 29.88 1012 10 16.0934 0 0
1:54 am 01:54 Mostly Clear 71 21.7 61 16.1 71 71 WSW 5 7 29.88 1012 10 16.0934 0 0
2:54 am 02:54 Clear 71 21.7 56 13.3 59 59 VRB 6 9 29.88 1012 10 16.0934 0 0
3:54 am 03:54 Mostly Clear 67 19.4 57 13.9 71 71 N 3 6 29.86 1011 10 16.0934 0 0
4:54 am 04:54 Partly Cloudy 68 20 57 13.9 68 68 Calm 29.86 1011 10 16.0934 0 0
5:54 am 05:54 Partly Cloudy 65 18.3 57 13.9 76 76 ENE 6 9 29.85 1011 10 16.0934 0 0
6:54 am 06:54 Sunny 68 20 58 14.4 70 70 WNW 6 9 29.83 1010 10 16.0934 0 0
7:54 am 07:54 Sunny 70 21.1 58 14.4 66 66 Calm 29.83 1010 10 16.0934 0 0
8:54 am 08:54 Sunny 73 22.8 60 15.6 64 64 Calm 29.83 1010 10 16.0934 0 0
9:54 am 09:54 Sunny 79 26.1 59 15 50 50 VRB 3 6 29.83 1010 10 16.0934 0 0.0254
10:54 am 10:54 Mostly Cloudy 79 26.1 59 15 50 50 Calm 29.85 1011 10 16.0934 0 0
11:54 am 11:54 Partly Cloudy 82 27.8 58 14.4 44 44 Calm 29.84 1010 10 16.0934 0 0
12:54 pm 12:54 Mostly Sunny 85 29.4 60 15.6 43 43 NE 3 6 29.82 1010 10 16.0934 0 0.0254
1:33 pm 13:33 Mostly Cloudy with Nearby Thunderstorms 82 27.8 60 15.6 47 47 S 12 19 29.8 1009 10 16.0934 0 0
1:54 pm 13:54 Cloudy with Thunderstorms 79 26.1 62 16.7 56 56 W 10 17 29.83 1010 4 6.43736 0.01 0.254
2:16 pm 14:16 Mostly Cloudy with Nearby Thunderstorms 75 23.9 65 18.3 71 71 W 14 22 29.8 1009 10 16.0934 0.03 0.762
2:28 pm 14:28 Mostly Cloudy with Light Rain 74 23.3 64 17.8 71 71 W 15 24 29.8 1009 10 16.0934 0.03 0.762
2:54 pm 14:54 Cloudy with Light Rain 75 23.9 64 17.8 69 69 NW 7 11 29.82 1010 10 16.0934 0.03 0.762
3:54 pm 15:54 Mostly Cloudy with Light Rain 71 21.7 65 18.3 81 81 E 10 17 29.79 1009 10 16.0934 0 0.0254
4:54 pm 16:54 Sunny 73 22.8 66 18.9 79 79 ESE 5 7 29.79 1009 10 16.0934 0 0.0254
5:54 pm 17:54 Sunny 75 23.9 65 18.3 71 71 Calm 29.77 1008 10 16.0934 0 0
6:12 pm 18:12 Sunny with Nearby Thunderstorms 76 24.4 65 18.3 69 69 Calm 29.74 1007 10 16.0934 0 0
6:35 pm 18:35 Mostly Sunny 78 25.6 64 17.8 62 62 N 5 7 29.71 1006 10 16.0934 0 0
6:54 pm 18:54 Mostly Cloudy 77 25 66 18.9 69 69 NNE 12 19 29.74 1007 10 16.0934 0 0
7:54 pm 19:54 Sunny 71 21.7 66 18.9 84 84 NE 12 19 29.7 1006 10 16.0934 0 0
8:54 pm 20:54 Mostly Cloudy 71 21.7 66 18.9 84 84 E 13 20 29.75 1007 10 16.0934 0 0
9:15 pm 21:15 Cloudy with Nearby Thunderstorms 71 21.7 65 18.3 81 81 E 7 11 29.71 1006 10 16.0934 0 0
9:41 pm 21:41 Cloudy with Rain 69 20.6 65 18.3 87 87 ENE 10 17 29.74 1007 6 9.65604 0.01 0.254
9:54 pm 21:54 Cloudy with Heavy Thunderstorms 69 20.6 65 18.3 87 87 E 9 15 29.75 1007 4 6.43736 0.05 1.27
10:23 pm 22:23 Cloudy with Nearby Thunderstorms 69 20.6 63 17.2 81 81 NE 12 19 29.74 1007 10 16.0934 0.11 2.794
10:37 pm 22:37 Cloudy with Light Thunderstorms 68 20 63 17.2 84 84 VRB 6 9 29.8 1009 5 8.0467 0.15 3.81
10:42 pm 22:42 Cloudy with Heavy Thunderstorms 69 20.6 61 16.1 76 76 NE 5 7 29.8 1009 1.75 2.816345 0.26 6.604
10:54 pm 22:54 Cloudy with Thunderstorms 67 19.4 62 16.7 84 84 Calm 29.8 1009 2.5 4.02335 0.41 10.414
11:01 pm 23:01 Cloudy with Nearby Thunderstorms 66 18.9 62 16.7 87 87 Calm 29.8 1009 2.5 4.02335 0.03 0.762
11:20 pm 23:20 Cloudy with Heavy Rain 66 18.9 64 17.8 93 93 WNW 6 9 29.8 1009 2.5 4.02335 0.16 4.064
11:32 pm 23:32 Cloudy with Rain 66 18.9 64 17.8 93 93 W 7 11 29.8 1009 4 6.43736 0.2 5.08
11:54 pm 23:54 Cloudy with Heavy Rain 65 18.3 63 17.2 93 93 N 8 13 29.77 1008 3 4.82802 0.28 7.112

Powered by AerisWeather